Wind_Speed
38 38 38 39 40 40 41 40 40 39 39 40 41 41 41 43 44 45 46 48 49 50 51 52 52 51 51 51 49 49 49 48 47 47 46 45 44 43 43 42 41 42 41
39 39 39 40 40 41 41 41 40 40 40 41 42 43 43 43 45 46 47 48 50 50 51 52 54 53 53 53 52 51 50 49 49 48 47 47 47 45 44 44 43 43 43
40 40 40 41 41 41 41 42 41 42 42 41 42 43 43 43 44 46 48 49 50 51 51 52 53 54 54 53 54 53 52 51 50 50 49 48 48 47 47 46 45 44 44
40 40 41 41 41 41 41 42 42 42 42 42 42 42 43 44 44 46 47 48 49 50 52 52 53 54 55 54 54 54 54 53 52 51 51 50 49 49 48 47 47 46 45
39 40 40 40 40 41 41 41 42 41 42 43 42 42 43 44 44 45 45 46 48 49 49 51 52 53 54 55 55 55 55 54 53 53 52 51 50 50 50 49 48 47 47
38 38 39 39 40 41 41 41 41 41 42 42 42 43 43 44 44 45 45 46 47 48 49 49 50 52 53 54 55 56 56 55 55 54 53 53 51 50 51 50 49 49 49
38 38 38 39 39 40 41 41 41 42 42 43 43 44 44 44 44 45 45 46 46 47 49 49 50 52 53 54 55 55 56 56 55 55 54 54 53 52 53 52 51 51 50
38 38 38 38 39 39 40 40 41 42 42 43 43 44 44 44 44 45 46 46 46 47 48 49 50 52 53 53 54 55 55 56 56 56 55 55 55 55 54 53 52 52 52
37 37 37 38 38 39 40 40 41 42 42 42 43 44 45 45 45 45 45 46 46 46 48 50 50 51 52 53 53 53 54 54 54 55 56 55 55 55 55 54 52 52 52
36 36 37 37 37 38 39 40 41 41 42 43 44 44 45 45 45 46 46 46 45 47 47 49 50 50 52 53 53 53 54 54 54 54 55 55 55 54 54 54 53 53 53
34 34 35 36 37 37 38 40 41 42 43 43 44 45 45 45 46 46 46 46 46 46 47 48 49 50 50 52 53 54 55 55 54 54 54 55 55 54 55 54 53 53 53
33 34 34 35 36 37 38 38 39 40 42 43 44 45 45 46 46 46 45 45 45 45 46 47 48 49 50 51 52 53 54 54 54 54 54 54 56 55 55 54 53 53 53
33 33 33 34 35 36 37 38 38 39 40 40 41 42 43 43 44 44 44 44 44 44 44 46 47 48 49 50 51 52 52 53 53 53 54 55 56 55 55 55 54 53 54
32 32 33 34 34 35 36 37 38 38 39 39 40 41 41 41 41 42 42 43 43 43 44 45 46 46 47 49 50 51 51 51 52 54 54 55 56 56 55 55 55 54 54
31 31 32 33 33 34 35 36 37 38 38 39 39 40 40 40 40 41 40 40 40 40 41 42 44 45 46 47 49 50 50 50 51 52 54 55 56 56 56 56 56 55 54
31 32 33 34 34 35 35 36 37 37 37 38 39 40 40 39 39 39 38 38 38 38 38 39 41 43 44 46 48 49 50 50 50 52 53 55 56 56 57 58 57 56 55
31 32 33 33 35 35 36 36 36 36 37 37 37 38 38 37 37 37 37 37 36 36 37 38 39 41 42 43 45 47 48 49 50 52 54 55 55 56 58 59 59 58 57
29 30 31 32 34 35 36 36 36 36 36 36 37 37 36 36 35 36 36 36 35 35 35 35 37 39 39 41 43 45 47 48 50 51 54 55 55 56 57 58 59 59 58
29 30 31 31 31 33 34 34 35 35 36 35 35 35 35 34 34 34 35 35 35 35 34 35 36 37 38 40 42 44 45 47 49 52 54 54 56 56 57 58 59 59 59
30 30 31 31 31 32 33 34 34 35 35 34 34 34 34 34 34 34 34 35 34 35 35 35 36 36 38 39 40 42 44 45 47 50 52 53 55 57 58 58 59 59 60
30 30 31 31 31 32 32 32 33 33 33 33 32 33 33 33 34 34 34 35 35 36 36 37 37 38 38 39 40 41 43 44 45 47 49 51 53 55 57 58 59 59 60
28 28 29 30 31 31 31 30 31 30 30 30 31 31 32 33 34 34 35 35 36 37 37 37 37 37 38 38 39 40 42 43 45 46 47 49 50 52 54 56 58 58 59
27 27 27 27 28 29 29 28 28 28 27 28 28 29 31 32 33 33 34 35 36 37 38 38 38 38 38 38 39 40 40 41 43 44 46 47 48 49 50 52 54 57 58
26 26 26 26 25 26 26 26 25 24 24 25 26 27 29 30 31 32 34 35 36 37 37 38 38 38 38 37 38 38 40 41 41 43 44 44 45 46 47 48 50 53 55
26 26 26 25 25 25 25 24 24 24 24 24 25 26 27 28 30 31 32 33 34 36 36 37 37 36 37 37 37 38 39 40 42 42 43 43 44 44 44 45 47 49 51
25 25 25 24 24 24 24 24 23 23 23 24 25 25 26 27 28 28 29 30 32 32 33 34 35 35 35 36 35 35 36 38 39 40 41 43 44 44 44 44 45 46 47
Wind_Direction
268 268 267 266 263 262 263 262 262 261 260 259 259 258 256 254 253 253 251 250 250 249 249 248 247 246 245 245 245 245 244 244 245 245 245 245 244 245 244 244 244 243 244
267 268 268 267 265 263 262 261 261 260 260 260 259 257 257 256 255 253 252 251 251 251 250 249 247 247 246 245 244 245 245 244 244 244 244 244 244 243 244 243 244 245 245
267 268 268 267 266 263 262 261 260 261 260 259 258 258 257 257 256 255 253 253 252 251 250 248 246 246 245 244 244 244 244 244 244 244 244 244 245 244 243 244 243 245 246
268 268 268 266 264 264 262 262 262 261 261 260 259 257 256 256 256 255 255 254 254 254 252 250 247 245 245 244 243 243 243 244 244 245 244 244 244 244 243 244 243 244 246
269 269 268 266 264 263 262 262 262 261 261 260 260 258 257 257 256 256 256 256 255 254 252 251 248 246 245 244 243 243 242 243 244 245 244 244 244 243 243 243 244 244 245
269 270 269 266 264 262 262 262 262 261 261 261 260 260 260 259 258 257 257 258 256 255 253 251 250 247 245 244 243 243 242 243 244 244 244 244 244 243 243 243 244 245 246
270 270 269 267 265 264 263 262 262 262 261 261 262 262 261 260 259 259 258 258 257 256 254 252 251 249 246 244 243 243 243 243 243 243 243 244 244 244 243 243 244 245 246
271 270 269 268 266 265 264 263 263 263 263 262 262 262 262 261 260 259 258 259 258 257 255 253 251 249 247 246 244 244 243 243 242 242 243 244 243 244 244 243 244 245 245
271 270 270 269 267 266 265 265 264 264 264 263 263 262 262 262 261 259 258 258 257 256 255 253 251 249 247 246 245 244 243 242 242 242 242 242 242 243 243 243 244 245 246
271 270 269 269 268 267 266 266 266 266 265 264 264 263 262 261 260 259 258 257 256 256 255 253 251 249 248 247 245 244 243 242 241 241 241 241 241 241 242 242 244 245 247
271 270 268 268 268 268 267 267 267 266 266 266 265 264 263 262 260 260 259 258 257 256 255 253 251 249 248 246 245 244 242 241 240 240 240 240 240 240 241 242 244 246 247
270 269 268 268 268 269 268 268 268 268 267 267 266 264 263 262 261 259 259 258 256 255 253 252 251 249 247 246 244 243 242 241 240 239 240 239 239 240 241 242 244 246 247
269 269 269 270 270 270 269 268 269 269 268 267 266 265 264 263 261 259 258 257 256 255 253 252 251 249 247 245 244 243 242 242 240 239 240 240 240 240 241 242 244 246 247
270 270 269 270 271 271 270 270 270 270 269 268 267 266 264 263 261 258 257 257 256 255 254 252 250 248 246 244 243 243 242 242 242 241 241 241 241 242 242 243 244 245 247
271 270 270 271 272 273 273 272 271 271 270 268 266 265 264 263 261 258 257 257 256 255 254 251 248 247 245 244 243 243 242 242 242 242 243 242 241 242 243 243 244 245 247
271 271 272 272 273 274 274 273 273 271 269 268 267 264 263 262 260 257 256 255 254 253 250 248 247 246 245 244 243 243 243 242 242 243 244 243 242 242 244 244 244 245 246
276 275 274 274 274 275 275 274 272 271 269 268 267 265 263 262 259 255 254 254 253 252 249 248 246 245 244 245 245 244 243 244 244 244 244 243 243 244 245 245 245 246 247
280 279 278 277 276 275 275 274 273 272 270 268 267 265 262 259 257 255 253 252 252 252 249 248 246 245 244 245 246 246 246 246 246 245 245 245 246 245 245 245 246 246 247
282 282 280 279 278 278 278 277 274 273 271 267 265 263 260 257 256 255 253 252 252 251 250 250 248 247 247 248 248 247 247 247 247 246 246 247 247 247 247 247 247 247 248
286 284 283 283 282 282 281 280 278 275 272 267 263 261 259 255 254 254 253 253 253 252 251 251 250 249 249 249 249 249 249 248 248 247 248 249 249 248 249 249 249 249 249
287 286 285 285 285 284 282 282 280 278 273 267 262 259 257 256 254 253 252 253 253 253 252 252 252 252 251 251 252 253 252 251 249 248 249 251 251 252 251 250 250 251 250
290 289 288 288 287 285 283 282 279 276 271 266 262 259 257 256 255 253 252 254 253 254 254 254 253 253 253 253 253 254 254 252 251 251 252 252 252 252 252 252 252 251 250
293 293 292 291 288 285 284 283 280 274 268 264 262 260 257 256 255 254 254 254 253 254 254 254 254 254 255 254 253 253 253 253 253 253 254 253 253 253 252 252 252 251 250
295 295 294 293 289 287 286 283 280 272 266 262 262 261 259 257 256 256 257 255 255 255 255 255 255 254 253 253 253 253 254 255 255 256 256 255 254 253 253 253 253 253 252
296 295 295 295 291 288 286 285 280 273 266 264 263 262 261 258 256 257 257 258 257 255 255 254 254 253 251 252 253 253 254 256 258 259 257 256 254 253 254 254 255 254 253
296 296 296 295 293 290 287 285 282 275 268 265 264 264 262 260 259 259 259 259 259 256 253 253 253 252 252 253 254 256 256 257 258 259 259 258 256 254 254 254 255 255 255
Height
5671 5671 5670 5669 5669 5669 5668 5668 5668 5668 5669 5669 5669 5670 5671 5672 5674 5675 5677 5680 5682 5685 5688 5691 5695 5698 5702 5706 5710 5714 5718 5722 5725 5729 5733 5737 5740 5743 5747 5750 5753 5756 5759
5661 5660 5659 5658 5658 5657 5657 5657 5657 5657 5657 5657 5658 5658 5659 5660 5662 5664 5665 5667 5669 5672 5675 5678 5682 5685 5689 5693 5698 5702 5706 5710 5714 5718 5722 5726 5730 5733 5737 5740 5743 5746 5749
5649 5648 5647 5647 5646 5646 5646 5646 5646 5645 5645 5645 5646 5646 5647 5648 5650 5651 5653 5655 5656 5659 5661 5664 5668 5672 5676 5681 5685 5690 5694 5699 5703 5707 5711 5715 5719 5723 5727 5730 5733 5737 5740
5638 5637 5636 5635 5635 5635 5634 5634 5634 5633 5633 5633 5633 5634 5635 5636 5637 5639 5640 5642 5644 5645 5648 5651 5654 5658 5663 5668 5672 5677 5682 5686 5690 5695 5699 5704 5708 5712 5716 5720 5723 5726 5730
5626 5625 5624 5624 5623 5623 5623 5622 5622 5621 5621 5621 5621 5621 5622 5623 5624 5626 5628 5629 5631 5632 5634 5637 5641 5645 5649 5654 5659 5664 5668 5673 5678 5682 5687 5691 5696 5700 5704 5709 5713 5716 5719
5615 5614 5613 5612 5611 5611 5611 5611 5610 5610 5609 5609 5608 5609 5609 5610 5612 5613 5615 5616 5618 5619 5621 5624 5627 5630 5635 5640 5645 5650 5655 5660 5665 5670 5674 5679 5683 5688 5692 5697 5701 5705 5709
5603 5602 5601 5601 5600 5600 5599 5599 5599 5598 5598 5597 5597 5597 5597 5598 5599 5600 5601 5603 5605 5606 5608 5610 5613 5617 5621 5625 5630 5635 5641 5646 5651 5656 5661 5666 5671 5675 5680 5685 5689 5693 5697
5592 5591 5590 5590 5589 5588 5588 5588 5587 5587 5586 5586 5585 5585 5585 5585 5586 5587 5589 5590 5591 5593 5594 5597 5600 5603 5607 5611 5616 5621 5626 5631 5637 5642 5648 5653 5658 5663 5667 5672 5676 5680 5684
5580 5580 5579 5578 5578 5577 5576 5576 5576 5575 5574 5574 5573 5573 5572 5572 5573 5574 5575 5577 5578 5579 5581 5583 5586 5589 5592 5596 5601 5606 5612 5617 5622 5628 5633 5639 5644 5649 5654 5659 5663 5668 5672
5569 5568 5568 5567 5566 5566 5565 5564 5563 5563 5562 5561 5561 5560 5560 5560 5560 5560 5562 5563 5564 5566 5567 5569 5571 5574 5578 5582 5587 5592 5597 5603 5608 5614 5619 5625 5631 5636 5641 5646 5651 5655 5660
5558 5557 5557 5556 5555 5554 5553 5552 5551 5551 5550 5549 5548 5547 5547 5546 5546 5547 5548 5549 5551 5552 5553 5555 5557 5560 5564 5568 5572 5577 5582 5588 5594 5600 5606 5611 5617 5623 5628 5633 5638 5642 5647
5548 5547 5546 5545 5544 5543 5542 5541 5539 5538 5537 5536 5535 5534 5533 5533 5533 5533 5534 5535 5537 5538 5540 5541 5544 5547 5550 5554 5559 5563 5568 5574 5580 5586 5592 5598 5604 5609 5615 5620 5625 5629 5634
5537 5536 5535 5534 5533 5532 5531 5529 5528 5526 5525 5523 5522 5521 5520 5520 5520 5520 5521 5522 5524 5525 5526 5528 5531 5534 5537 5541 5546 5550 5555 5561 5567 5573 5579 5585 5590 5596 5601 5606 5611 5615 5620
5526 5525 5524 5523 5522 5521 5519 5517 5516 5514 5513 5512 5510 5509 5508 5508 5507 5508 5509 5510 5511 5513 5514 5516 5519 5522 5525 5529 5533 5538 5543 5549 5554 5560 5566 5572 5577 5583 5588 5593 5598 5602 5607
5515 5515 5514 5513 5511 5510 5508 5506 5505 5503 5501 5500 5499 5497 5496 5496 5496 5497 5498 5499 5500 5501 5502 5504 5507 5510 5514 5518 5522 5526 5531 5536 5542 5547 5553 5558 5564 5569 5574 5579 5584 5589 5593
5505 5504 5503 5502 5500 5499 5497 5495 5493 5491 5490 5488 5487 5486 5485 5485 5485 5486 5487 5488 5489 5491 5492 5494 5497 5500 5503 5506 5510 5514 5519 5524 5529 5534 5539 5544 5550 5555 5560 5565 5570 5575 5579
5495 5494 5492 5491 5489 5487 5485 5483 5482 5480 5478 5477 5475 5474 5474 5474 5474 5475 5476 5478 5480 5481 5482 5484 5487 5490 5493 5495 5499 5503 5507 5512 5517 5521 5526 5531 5536 5541 5546 5550 5555 5560 5564
5486 5484 5482 5481 5478 5476 5474 5472 5470 5469 5467 5465 5464 5464 5464 5464 5464 5465 5467 5469 5471 5472 5474 5475 5477 5480 5482 5485 5488 5491 5495 5500 5504 5508 5513 5518 5522 5527 5531 5536 5540 5545 5550
5476 5474 5472 5470 5468 5465 5463 5461 5459 5457 5456 5454 5454 5453 5453 5454 5455 5456 5458 5460 5462 5464 5465 5466 5468 5470 5473 5475 5478 5480 5483 5487 5491 5495 5500 5504 5508 5513 5517 5521 5526 5531 5535
5466 5464 5462 5460 5457 5455 5452 5450 5448 5446 5445 5444 5443 5443 5444 5445 5446 5448 5449 5451 5452 5454 5455 5457 5459 5460 5463 5465 5467 5469 5472 5476 5479 5483 5486 5490 5494 5498 5501 5505 5510 5515 5519
5457 5454 5452 5450 5447 5444 5442 5440 5438 5436 5434 5434 5433 5434 5434 5436 5437 5439 5440 5441 5443 5445 5447 5448 5449 5450 5452 5454 5456 5458 5461 5463 5466 5469 5473 5476 5479 5482 5486 5490 5495 5499 5503
5447 5445 5442 5440 5437 5434 5432 5429 5427 5426 5425 5424 5424 5424 5425 5426 5428 5429 5430 5432 5433 5435 5436 5438 5439 5440 5442 5443 5445 5447 5449 5452 5455 5457 5460 5462 5465 5468 5471 5474 5478 5482 5485
5439 5436 5433 5430 5428 5425 5422 5420 5418 5417 5416 5415 5415 5415 5416 5417 5418 5420 5421 5422 5423 5425 5426 5427 5428 5430 5432 5433 5434 5436 5438 5440 5442 5444 5446 5449 5451 5454 5456 5459 5462 5465 5468
5430 5427 5424 5422 5419 5416 5414 5412 5410 5408 5407 5407 5407 5407 5408 5408 5409 5410 5412 5413 5414 5415 5416 5417 5418 5420 5421 5423 5424 5425 5427 5428 5430 5432 5433 5435 5437 5439 5442 5444 5446 5449 5452
5422 5419 5416 5414 5411 5408 5406 5404 5402 5400 5399 5399 5399 5399 5400 5400 5401 5401 5402 5403 5404 5405 5406 5407 5408 5410 5411 5413 5414 5414 5415 5416 5418 5419 5421 5423 5425 5426 5428 5430 5433 5435 5437
5414 5411 5408 5405 5403 5400 5398 5396 5394 5393 5392 5392 5391 5391 5392 5392 5392 5393 5393 5393 5394 5395 5396 5397 5398 5399 5401 5402 5403 5404 5405 5405 5406 5408 5409 5410 5412 5413 5415 5417 5419 5421 5423